Eagle River, WI

8:15 AM CDT on August 26, 2016 (GMT -0500)
Eagle River Union

Weather History for KEGV - November, 2012

Change the Weather History Date:

Monday, November 5, 2012

  Actual Average Record
Temperature  
Mean Temperature 24 °F -  
Max Temperature 33 °F 36 °F 61 °F (2015)
Min Temperature 14 °F 24 °F 10 °F (1991)
Degree Days  
Heating Degree Days 42    
Moisture  
Dew Point 21 °F    
Average Humidity 82    
Maximum Humidity 100    
Minimum Humidity 60    
Precipitation  
Precipitation 0.00 in - - ()
Sea Level Pressure  
Sea Level Pressure 30.15 in    
Wind  
Wind Speed 2 mph (South)    
Max Wind Speed 8 mph    
Max Gust Speed -    
Visibility 10 miles    
Events      
Averages and records for this station are not official NWS values.
T = Trace of Precipitation, MM = Missing Value Source: NWS Daily Summary

Daily Weather History Graph

Daily Weather History Graph

Search for Another Location

Airport or City:

Trip Planner

Search our weather history database for the weather conditions in past years. The results will help you decide how hot, cold, wet, or windy it might be!

Date:

Astronomy

Nov. 05, 2012 Rise Set
Actual Time 6:43 AM CST 4:36 PM CST
Civil Twilight 6:12 AM CST 5:08 PM CST
Nautical Twilight 5:36 AM CST 5:43 PM CST
Astronomical Twilight 5:01 AM CST 6:18 PM CST
Moon 10:14 PM CST (11/5) 12:03 PM CST (11/5)
Length of Visible Light 10h 56m
Length of Day
9h 53m
Waning Gibbous, 62% of the Moon is Illuminated
Nov 5
Waning Gibbous
Nov 6
Last Quarter
Nov 13
New
Nov 20
First Quarter
Nov 28
Full

Hourly Weather History & Observations

Time (CST) Temp. Windchill Dew Point Humidity Pressure Visibility Wind Dir Wind Speed Gust Speed Precip Events Conditions
12:15 AM 17.6 °F - 17.6 °F 100% 30.21 in 10.0 mi Calm Calm - N/A   Clear
12:35 AM 17.6 °F - 17.6 °F 100% 30.22 in 10.0 mi Calm Calm - N/A   Clear
12:55 AM 17.6 °F - 17.6 °F 100% 30.21 in 10.0 mi Calm Calm - N/A   Clear
1:15 AM 17.6 °F - 15.8 °F 93% 30.22 in 10.0 mi Calm Calm - N/A   Clear
1:35 AM 17.6 °F - 17.6 °F 100% 30.22 in 10.0 mi Calm Calm - N/A   Clear
1:55 AM 15.8 °F - 14.0 °F 93% 30.22 in 10.0 mi Calm Calm - N/A   Scattered Clouds
2:15 AM 17.6 °F - 17.6 °F 100% 30.21 in 10.0 mi Calm Calm - N/A   Mostly Cloudy
2:35 AM 14.0 °F - 14.0 °F 100% 30.21 in 10.0 mi Calm Calm - N/A   Mostly Cloudy
2:55 AM 17.6 °F - 15.8 °F 93% 30.21 in 10.0 mi Calm Calm - N/A   Scattered Clouds
3:15 AM 17.6 °F - 15.8 °F 93% 30.20 in 10.0 mi Calm Calm - N/A   Scattered Clouds
3:35 AM 14.0 °F - 14.0 °F 100% 30.21 in 4.0 mi Calm Calm - N/A   Mostly Cloudy
3:55 AM 15.8 °F - 15.8 °F 100% 30.21 in 10.0 mi Calm Calm - N/A   Overcast
4:15 AM 17.6 °F - 17.6 °F 100% 30.21 in 10.0 mi Calm Calm - N/A   Overcast
4:35 AM 19.4 °F - 19.4 °F 100% 30.21 in 10.0 mi Calm Calm - N/A   Overcast
4:55 AM 21.2 °F - 19.4 °F 93% 30.21 in 10.0 mi Calm Calm - N/A   Overcast
5:35 AM 23.0 °F - 23.0 °F 100% 30.21 in 10.0 mi Calm Calm - N/A   Overcast
5:55 AM 23.0 °F - 23.0 °F 100% 30.21 in 10.0 mi Calm Calm - N/A   Overcast
6:15 AM 23.0 °F - 23.0 °F 100% 30.22 in 10.0 mi Calm Calm - N/A   Overcast
6:35 AM 24.8 °F 19.1 °F 24.8 °F 100% 30.22 in 10.0 mi ENE 4.6 mph - N/A   Overcast
6:55 AM 28.4 °F 22.2 °F 24.8 °F 86% 30.22 in 10.0 mi East 5.8 mph - N/A   Overcast
7:15 AM 28.4 °F 23.3 °F 24.8 °F 86% 30.22 in 10.0 mi East 4.6 mph - N/A   Overcast
7:35 AM 28.4 °F 23.3 °F 24.8 °F 86% 30.22 in 10.0 mi East 4.6 mph - N/A   Overcast
7:55 AM 28.4 °F 22.2 °F 24.8 °F 86% 30.22 in 10.0 mi ESE 5.8 mph - N/A   Overcast
8:15 AM 30.2 °F 24.3 °F 23.0 °F 75% 30.22 in 10.0 mi East 5.8 mph - N/A   Overcast
8:35 AM 30.2 °F 25.4 °F 21.2 °F 69% 30.22 in 10.0 mi East 4.6 mph - N/A   Overcast
8:55 AM 30.2 °F 25.4 °F 21.2 °F 69% 30.21 in 10.0 mi East 4.6 mph - N/A   Overcast
9:15 AM 30.2 °F 25.4 °F 21.2 °F 69% 30.21 in 10.0 mi SE 4.6 mph - N/A   Overcast
9:35 AM 30.2 °F 24.3 °F 21.2 °F 69% 30.21 in 10.0 mi SE 5.8 mph - N/A   Overcast
9:55 AM 30.2 °F - 21.2 °F 69% 30.22 in 10.0 mi Calm Calm - N/A   Overcast
10:15 AM 30.2 °F - 21.2 °F 69% 30.22 in 10.0 mi Calm Calm - N/A   Overcast
10:35 AM 30.2 °F 26.7 °F 21.2 °F 69% 30.21 in 10.0 mi South 3.5 mph - N/A   Overcast
10:55 AM 30.2 °F 25.4 °F 21.2 °F 69% 30.21 in 10.0 mi South 4.6 mph - N/A   Overcast
11:15 AM 30.2 °F 26.7 °F 21.2 °F 69% 30.20 in 10.0 mi West 3.5 mph - N/A   Overcast
11:35 AM 32.0 °F 27.5 °F 21.2 °F 64% 30.20 in 10.0 mi South 4.6 mph - N/A   Overcast
11:55 AM 32.0 °F 28.7 °F 21.2 °F 64% 30.19 in 10.0 mi East 3.5 mph - N/A   Overcast
12:15 PM 32.0 °F 28.7 °F 21.2 °F 64% 30.18 in 10.0 mi ESE 3.5 mph - N/A   Overcast
12:35 PM 33.8 °F 27.7 °F 21.2 °F 60% 30.17 in 10.0 mi SW 6.9 mph - N/A   Overcast
12:55 PM 32.0 °F 25.6 °F 21.2 °F 64% 30.16 in 10.0 mi WSW 6.9 mph - N/A   Scattered Clouds
1:15 PM 32.0 °F 28.7 °F 21.2 °F 64% 30.16 in 10.0 mi West 3.5 mph - N/A   Scattered Clouds
1:35 PM 33.8 °F 30.8 °F 21.2 °F 60% 30.15 in 10.0 mi SSE 3.5 mph - N/A   Scattered Clouds
1:55 PM 33.8 °F - 21.2 °F 60% 30.14 in 10.0 mi Calm Calm - N/A   Scattered Clouds
2:15 PM 32.0 °F 28.7 °F 21.2 °F 64% 30.14 in 10.0 mi WSW 3.5 mph - N/A   Scattered Clouds
2:35 PM 32.0 °F 27.5 °F 21.2 °F 64% 30.13 in 10.0 mi WSW 4.6 mph - N/A   Clear
2:55 PM 32.0 °F 26.4 °F 21.2 °F 64% 30.13 in 10.0 mi West 5.8 mph - N/A   Scattered Clouds
3:15 PM 32.0 °F 24.8 °F 21.2 °F 64% 30.13 in 10.0 mi WSW 8.1 mph - N/A   Scattered Clouds
3:35 PM 32.0 °F 26.4 °F 21.2 °F 64% 30.13 in 10.0 mi WSW 5.8 mph - N/A   Scattered Clouds
3:55 PM 32.0 °F 26.4 °F 21.2 °F 64% 30.12 in 10.0 mi WSW 5.8 mph - N/A   Clear
4:15 PM 30.2 °F 24.3 °F 21.2 °F 69% 30.12 in 10.0 mi SW 5.8 mph - N/A   Clear
4:35 PM 30.2 °F - 21.2 °F 69% 30.11 in 10.0 mi Calm Calm - N/A   Clear
4:55 PM 30.2 °F - 21.2 °F 69% 30.10 in 10.0 mi Calm Calm - N/A   Clear
5:15 PM 28.4 °F - 21.2 °F 74% 30.11 in 10.0 mi Calm Calm - N/A   Clear
5:35 PM 26.6 °F - 21.2 °F 80% 30.11 in 10.0 mi Calm Calm - N/A   Clear
5:55 PM 28.4 °F - 21.2 °F 74% 30.11 in 10.0 mi Calm Calm - N/A   Clear
6:15 PM 26.6 °F - 21.2 °F 80% 30.11 in 10.0 mi Calm Calm - N/A   Clear
6:35 PM 24.8 °F - 19.4 °F 80% 30.10 in 10.0 mi Calm Calm - N/A   Clear
6:55 PM 24.8 °F - 21.2 °F 86% 30.10 in 10.0 mi Calm Calm - N/A   Clear
7:15 PM 24.8 °F 20.5 °F 21.2 °F 86% 30.09 in 10.0 mi South 3.5 mph - N/A   Clear
7:35 PM 24.8 °F - 21.2 °F 86% 30.08 in 10.0 mi Calm Calm - N/A   Clear
7:55 PM 24.8 °F - 21.2 °F 86% 30.07 in 10.0 mi Calm Calm - N/A   Clear
8:15 PM 24.8 °F 20.5 °F 21.2 °F 86% 30.07 in 10.0 mi South 3.5 mph - N/A   Clear
8:35 PM 24.8 °F 20.5 °F 21.2 °F 86% 30.06 in 10.0 mi South 3.5 mph - N/A   Clear
8:55 PM 24.8 °F - 21.2 °F 86% 30.06 in 10.0 mi Calm Calm - N/A   Clear
9:15 PM 24.8 °F - 21.2 °F 86% 30.05 in 10.0 mi Calm Calm - N/A   Clear
9:35 PM 23.0 °F 18.4 °F 21.2 °F 93% 30.04 in 10.0 mi South 3.5 mph - N/A   Clear
9:55 PM 23.0 °F - 21.2 °F 93% 30.04 in 10.0 mi Calm Calm - N/A   Clear
10:15 PM 23.0 °F - 21.2 °F 93% 30.03 in 10.0 mi Calm Calm - N/A   Clear
10:35 PM 23.0 °F - 23.0 °F 100% 30.02 in 10.0 mi Calm Calm - N/A   Clear
10:55 PM 23.0 °F - 21.2 °F 93% 30.02 in 10.0 mi Calm Calm - N/A   Mostly Cloudy
11:15 PM 24.8 °F - 21.2 °F 86% 30.02 in 10.0 mi Calm Calm - N/A   Overcast
11:35 PM 26.6 °F - 21.2 °F 80% 30.02 in 10.0 mi Calm Calm - N/A   Overcast
11:55 PM 26.6 °F 22.6 °F 23.0 °F 86% 30.01 in 10.0 mi South 3.5 mph - N/A   Overcast